Volver al catálogo

FENGYUN 1C DEB

ActivoPO
NORAD 30017·DEBRIS·🇨🇳 China

Lanzado May 10, 1999 desde Taiyuan Satellite Launch Center

Loading…

Próximos Pases (próximas 24 horas)

TLE

ActualizadoSource: Space-Track

Época: Sep 14, 2026, 04:10 UTC

1 30017U 99025MS  26257.17427150  .00000610  00000-0  97243-4 0  9991
2 30017  98.7176 322.3241 0216489  46.7152 315.1882 14.61737712 44671

Sigue FENGYUN 1C DEB en tiempo real con AllMySat

Download on the App Store